IFACO EHAM-EBOS

Flight info

Callsign IFACO
Flight time 0h 53m
Altitude 2000
Route VICTOR VFR
Aircraft BE36/L-SDFGY/L

Departure

Time 2026-05-06 19:19
Airport Amsterdam Airport Schiphol (EHAM)

Arrival

Time 2026-05-06 20:12
Airport Ostend-Bruges International Airport (EBOS)
Time Latitude Longitude Altitude Speed Heading
2026-05-06 18:57 52.31179 4.80828 -12 ft 0 kts 39°
2026-05-06 19:06 52.31187 4.80828 -12 ft 2 kts 319°
2026-05-06 19:06 52.31171 4.80781 -12 ft 6 kts 220°
2026-05-06 19:06 52.31161 4.80764 -12 ft 0 kts 228°
2026-05-06 19:06 52.31157 4.80757 -12 ft 4 kts 233°
2026-05-06 19:07 52.31153 4.80745 -12 ft 0 kts 240°
2026-05-06 19:07 52.31154 4.80718 -12 ft 7 kts 307°
2026-05-06 19:07 52.31184 4.80660 -12 ft 7 kts 314°
2026-05-06 19:07 52.31205 4.80620 -12 ft 0 kts 312°
2026-05-06 19:08 52.31207 4.80617 -12 ft 0 kts 313°
2026-05-06 19:08 52.31208 4.80615 -12 ft 0 kts 312°
2026-05-06 19:09 52.31211 4.80610 -12 ft 6 kts 313°
2026-05-06 19:09 52.31234 4.80568 -12 ft 0 kts 314°
2026-05-06 19:10 52.31251 4.80519 -12 ft 12 kts 278°
2026-05-06 19:10 52.31244 4.80437 -12 ft 0 kts 249°
2026-05-06 19:10 52.31204 4.80362 -12 ft 22 kts 222°
2026-05-06 19:10 52.31063 4.80162 -12 ft 29 kts 219°
2026-05-06 19:11 52.30904 4.79938 -12 ft 31 kts 223°
2026-05-06 19:11 52.30741 4.79700 -12 ft 31 kts 218°
2026-05-06 19:11 52.30587 4.79481 -12 ft 19 kts 219°
2026-05-06 19:11 52.30519 4.79385 -12 ft 10 kts 219°
2026-05-06 19:12 52.30461 4.79304 -12 ft 13 kts 225°
2026-05-06 19:12 52.30382 4.79188 -12 ft 16 kts 219°
2026-05-06 19:12 52.30298 4.79068 -12 ft 15 kts 223°
2026-05-06 19:12 52.30219 4.78954 -12 ft 16 kts 221°
2026-05-06 19:13 52.30160 4.78872 -12 ft 10 kts 218°
2026-05-06 19:13 52.30100 4.78785 -12 ft 14 kts 222°
2026-05-06 19:13 52.30068 4.78741 -12 ft 7 kts 217°
2026-05-06 19:13 52.30038 4.78667 -12 ft 8 kts 266°
2026-05-06 19:14 52.30039 4.78643 -12 ft 0 kts 286°
2026-05-06 19:14 52.30042 4.78631 -12 ft 0 kts 297°
2026-05-06 19:15 52.30066 4.78581 -12 ft 0 kts 312°
2026-05-06 19:17 52.30090 4.78536 -10 ft 13 kts 314°
2026-05-06 19:17 52.30161 4.78526 -11 ft 7 kts 43°
2026-05-06 19:17 52.30163 4.78529 -11 ft 0 kts 40°
2026-05-06 19:18 52.30226 4.78617 -11 ft 41 kts 41°
2026-05-06 19:18 52.30570 4.79118 103 ft 78 kts 41°
2026-05-06 19:18 52.30984 4.79744 394 ft 81 kts 35°
2026-05-06 19:19 52.31372 4.80600 517 ft 116 kts 82°
2026-05-06 19:19 52.30958 4.81907 656 ft 147 kts 128°
2026-05-06 19:19 52.30235 4.83200 807 ft 160 kts 126°
2026-05-06 19:19 52.29469 4.84571 967 ft 166 kts 127°
2026-05-06 19:20 52.28679 4.85951 1007 ft 167 kts 127°
2026-05-06 19:20 52.27878 4.87340 1006 ft 169 kts 127°
2026-05-06 19:20 52.27073 4.88745 1006 ft 170 kts 127°
2026-05-06 19:20 52.26269 4.90160 1010 ft 170 kts 127°
2026-05-06 19:21 52.25465 4.91579 1005 ft 170 kts 127°
2026-05-06 19:21 52.24669 4.93004 1008 ft 170 kts 127°
2026-05-06 19:21 52.23870 4.94430 1007 ft 172 kts 127°
2026-05-06 19:21 52.23054 4.95890 1014 ft 176 kts 130°
2026-05-06 19:22 52.21945 4.96752 1004 ft 184 kts 174°
2026-05-06 19:22 52.20721 4.96163 1007 ft 189 kts 216°
2026-05-06 19:22 52.19715 4.94781 1004 ft 190 kts 222°
2026-05-06 19:22 52.18714 4.93348 1007 ft 193 kts 222°
2026-05-06 19:23 52.17712 4.91905 1008 ft 192 kts 222°
2026-05-06 19:23 52.16716 4.90452 1003 ft 189 kts 223°
2026-05-06 19:23 52.15790 4.89116 988 ft 165 kts 223°
2026-05-06 19:23 52.14950 4.87921 988 ft 157 kts 223°
2026-05-06 19:24 52.14136 4.86763 986 ft 154 kts 222°
2026-05-06 19:24 52.13344 4.85619 990 ft 151 kts 223°
2026-05-06 19:24 52.12559 4.84495 994 ft 150 kts 222°
2026-05-06 19:24 52.11778 4.83380 991 ft 149 kts 222°
2026-05-06 19:25 52.11006 4.82272 995 ft 148 kts 222°
2026-05-06 19:25 52.10230 4.81178 998 ft 149 kts 222°
2026-05-06 19:25 52.09429 4.80042 1001 ft 155 kts 222°
2026-05-06 19:25 52.08613 4.78878 1008 ft 157 kts 222°
2026-05-06 19:26 52.07784 4.77708 1006 ft 158 kts 223°
2026-05-06 19:26 52.06953 4.76534 1006 ft 158 kts 223°
2026-05-06 19:26 52.06129 4.75376 1002 ft 155 kts 222°
2026-05-06 19:26 52.05330 4.74247 1004 ft 150 kts 222°
2026-05-06 19:27 52.04550 4.73144 995 ft 147 kts 222°
2026-05-06 19:27 52.03792 4.72074 990 ft 142 kts 222°
2026-05-06 19:27 52.03064 4.71040 991 ft 137 kts 222°
2026-05-06 19:27 52.02347 4.70041 993 ft 134 kts 222°
2026-05-06 19:28 52.01663 4.69066 995 ft 131 kts 222°
2026-05-06 19:28 52.00978 4.68093 995 ft 130 kts 222°
2026-05-06 19:28 52.00305 4.67137 997 ft 127 kts 222°
2026-05-06 19:28 51.99643 4.66205 989 ft 125 kts 222°
2026-05-06 19:29 51.98994 4.65277 995 ft 124 kts 222°
2026-05-06 19:29 51.98347 4.64362 993 ft 123 kts 222°
2026-05-06 19:29 51.97706 4.63466 992 ft 121 kts 222°
2026-05-06 19:29 51.97077 4.62572 987 ft 119 kts 222°
2026-05-06 19:30 51.96581 4.61571 995 ft 111 kts 256°
2026-05-06 19:30 51.96327 4.60382 996 ft 116 kts 253°
2026-05-06 19:30 51.96045 4.59091 1008 ft 126 kts 254°
2026-05-06 19:30 51.95779 4.57701 1011 ft 131 kts 258°
2026-05-06 19:31 51.95547 4.56238 1007 ft 137 kts 259°
2026-05-06 19:31 51.95252 4.54739 1010 ft 142 kts 251°
2026-05-06 19:31 51.94541 4.51722 1007 ft 142 kts 251°
2026-05-06 19:32 51.94184 4.50258 1006 ft 137 kts 250°
2026-05-06 19:32 51.93846 4.48850 993 ft 131 kts 251°
2026-05-06 19:32 51.93545 4.47495 985 ft 125 kts 266°
2026-05-06 19:32 51.93787 4.46261 993 ft 115 kts 308°
2026-05-06 19:33 51.94200 4.45142 993 ft 116 kts 307°
2026-05-06 19:33 51.94610 4.44036 994 ft 113 kts 307°
2026-05-06 19:33 51.95014 4.42954 992 ft 112 kts 307°
2026-05-06 19:33 51.95413 4.41874 990 ft 112 kts 307°
2026-05-06 19:34 51.95811 4.40786 993 ft 113 kts 307°
2026-05-06 19:34 51.96199 4.39681 991 ft 114 kts 301°
2026-05-06 19:34 51.96166 4.38388 1001 ft 119 kts 257°
2026-05-06 19:34 51.95964 4.37103 996 ft 118 kts 260°
2026-05-06 19:35 51.95658 4.35907 1059 ft 113 kts 232°
2026-05-06 19:35 51.94994 4.35217 1006 ft 113 kts 190°
2026-05-06 19:35 51.94279 4.35316 1051 ft 98 kts 146°
2026-05-06 19:35 51.93767 4.36029 1026 ft 93 kts 126°
2026-05-06 19:36 51.93399 4.36864 1006 ft 87 kts 98°
2026-05-06 19:36 51.93331 4.37857 859 ft 89 kts 80°
2026-05-06 19:36 51.93514 4.38787 662 ft 87 kts 59°
2026-05-06 19:36 51.93805 4.39625 473 ft 83 kts 59°
2026-05-06 19:37 51.94153 4.40341 367 ft 87 kts 49°
2026-05-06 19:37 51.94520 4.41175 312 ft 88 kts 53°
2026-05-06 19:37 51.94849 4.41943 185 ft 78 kts 52°
2026-05-06 19:37 51.95043 4.42415 105 ft 75 kts 54°
2026-05-06 19:38 51.95396 4.43314 -8 ft 71 kts 52°
2026-05-06 19:38 51.95702 4.44066 186 ft 85 kts 55°
2026-05-06 19:38 51.95998 4.44916 470 ft 95 kts 66°
2026-05-06 19:38 51.96487 4.45569 688 ft 102 kts 14°
2026-05-06 19:39 51.97230 4.45341 745 ft 129 kts 325°
2026-05-06 19:39 51.97662 4.43948 804 ft 155 kts 280°
2026-05-06 19:39 51.97726 4.42155 994 ft 163 kts 278°
2026-05-06 19:39 51.97779 4.40243 1015 ft 176 kts 275°
2026-05-06 19:40 51.97791 4.38201 1015 ft 185 kts 274°
2026-05-06 19:40 51.97794 4.36091 1006 ft 188 kts 273°
2026-05-06 19:40 51.97786 4.33976 1014 ft 187 kts 273°
2026-05-06 19:40 51.97779 4.31860 1011 ft 188 kts 274°
2026-05-06 19:41 51.97771 4.29744 1011 ft 187 kts 273°
2026-05-06 19:41 51.97769 4.27628 1009 ft 188 kts 273°
2026-05-06 19:41 51.97762 4.25514 1007 ft 187 kts 273°
2026-05-06 19:41 51.97758 4.23402 1009 ft 187 kts 273°
2026-05-06 19:42 51.97768 4.21312 1006 ft 189 kts 274°
2026-05-06 19:42 51.97763 4.19179 1009 ft 189 kts 273°
2026-05-06 19:42 51.97762 4.17070 1007 ft 183 kts 274°
2026-05-06 19:42 51.97755 4.15077 999 ft 172 kts 273°
2026-05-06 19:43 51.97740 4.13184 995 ft 164 kts 272°
2026-05-06 19:43 51.97679 4.11378 1000 ft 160 kts 257°
2026-05-06 19:43 51.97113 4.09849 1000 ft 159 kts 235°
2026-05-06 19:43 51.96461 4.08403 1008 ft 158 kts 235°
2026-05-06 19:44 51.95805 4.06977 1001 ft 157 kts 235°
2026-05-06 19:44 51.95161 4.05532 998 ft 159 kts 236°
2026-05-06 19:44 51.94506 4.04071 1004 ft 160 kts 236°
2026-05-06 19:44 51.93850 4.02619 1004 ft 159 kts 235°
2026-05-06 19:45 51.93197 4.01163 1003 ft 159 kts 235°
2026-05-06 19:45 51.92552 3.99741 1000 ft 154 kts 235°
2026-05-06 19:45 51.91915 3.98359 994 ft 152 kts 235°
2026-05-06 19:45 51.91294 3.97008 990 ft 150 kts 235°
2026-05-06 19:46 51.90666 3.95679 988 ft 148 kts 226°
2026-05-06 19:46 51.89894 3.94591 995 ft 147 kts 220°
2026-05-06 19:46 51.89122 3.93507 994 ft 147 kts 219°
2026-05-06 19:46 51.88354 3.92436 1001 ft 148 kts 221°
2026-05-06 19:47 51.87563 3.91343 1008 ft 150 kts 220°
2026-05-06 19:47 51.86768 3.90231 1012 ft 152 kts 220°
2026-05-06 19:47 51.85957 3.89112 1012 ft 154 kts 219°
2026-05-06 19:47 51.85137 3.87978 1012 ft 156 kts 217°
2026-05-06 19:48 51.84274 3.86922 1018 ft 155 kts 216°
2026-05-06 19:48 51.83413 3.85860 1012 ft 156 kts 217°
2026-05-06 19:48 51.82548 3.84800 1014 ft 156 kts 216°
2026-05-06 19:48 51.81666 3.83754 1008 ft 158 kts 215°
2026-05-06 19:49 51.80786 3.82685 1002 ft 158 kts 216°
2026-05-06 19:49 51.79927 3.81598 1009 ft 156 kts 217°
2026-05-06 19:49 51.79061 3.80536 1008 ft 156 kts 216°
2026-05-06 19:49 51.78181 3.79490 1001 ft 157 kts 215°
2026-05-06 19:50 51.77322 3.78438 1003 ft 157 kts 216°
2026-05-06 19:50 51.76454 3.77359 1000 ft 158 kts 217°
2026-05-06 19:50 51.75574 3.76288 1002 ft 159 kts 216°
2026-05-06 19:50 51.74687 3.75222 1009 ft 159 kts 216°
2026-05-06 19:51 51.73818 3.74153 1006 ft 155 kts 216°
2026-05-06 19:51 51.72956 3.73118 1007 ft 155 kts 216°
2026-05-06 19:51 51.72091 3.72067 1009 ft 156 kts 215°
2026-05-06 19:51 51.71242 3.71006 1004 ft 154 kts 216°
2026-05-06 19:52 51.70676 3.70286 1004 ft 153 kts 217°
2026-05-06 19:52 51.69548 3.68901 1002 ft 155 kts 215°
2026-05-06 19:52 51.68971 3.68181 1008 ft 156 kts 216°
2026-05-06 19:52 51.68114 3.67085 1003 ft 158 kts 217°
2026-05-06 19:53 51.67248 3.66003 1022 ft 158 kts 216°
2026-05-06 19:53 51.66380 3.64922 1010 ft 158 kts 216°
2026-05-06 19:53 51.65516 3.63844 1011 ft 157 kts 216°
2026-05-06 19:53 51.64661 3.62793 1011 ft 157 kts 216°
2026-05-06 19:54 51.63783 3.61735 1004 ft 157 kts 216°
2026-05-06 19:54 51.62916 3.60670 1007 ft 157 kts 216°
2026-05-06 19:54 51.62052 3.59600 1004 ft 157 kts 215°
2026-05-06 19:54 51.61188 3.58514 1005 ft 158 kts 216°
2026-05-06 19:55 51.60322 3.57424 1006 ft 159 kts 216°
2026-05-06 19:55 51.59443 3.56340 1009 ft 160 kts 215°
2026-05-06 19:55 51.58569 3.55252 1014 ft 158 kts 216°
2026-05-06 19:55 51.57704 3.54179 1007 ft 156 kts 216°
2026-05-06 19:56 51.56840 3.53131 1006 ft 155 kts 216°
2026-05-06 19:56 51.55985 3.52081 1006 ft 155 kts 216°
2026-05-06 19:56 51.55132 3.51028 1002 ft 154 kts 216°
2026-05-06 19:56 51.54280 3.49986 1004 ft 154 kts 216°
2026-05-06 19:57 51.53426 3.48951 999 ft 153 kts 216°
2026-05-06 19:57 51.52579 3.47921 998 ft 153 kts 216°
2026-05-06 19:57 51.51727 3.46891 1003 ft 153 kts 216°
2026-05-06 19:57 51.50880 3.45846 1004 ft 154 kts 216°
2026-05-06 19:58 51.50033 3.44809 1004 ft 152 kts 216°
2026-05-06 19:58 51.49190 3.43777 1006 ft 153 kts 216°
2026-05-06 19:58 51.48348 3.42745 1006 ft 152 kts 216°
2026-05-06 19:58 51.47511 3.41707 1007 ft 152 kts 217°
2026-05-06 19:59 51.46660 3.40691 1003 ft 152 kts 216°
2026-05-06 19:59 51.45810 3.39685 1008 ft 152 kts 216°
2026-05-06 19:59 51.44965 3.38657 1004 ft 153 kts 216°
2026-05-06 19:59 51.44113 3.37646 1001 ft 153 kts 215°
2026-05-06 20:00 51.43259 3.36623 1007 ft 154 kts 216°
2026-05-06 20:00 51.42401 3.35587 1003 ft 155 kts 216°
2026-05-06 20:00 51.41544 3.34525 1012 ft 156 kts 216°
2026-05-06 20:00 51.40697 3.33496 1012 ft 154 kts 216°
2026-05-06 20:01 51.39850 3.32486 1001 ft 150 kts 215°
2026-05-06 20:01 51.39025 3.31485 991 ft 147 kts 216°
2026-05-06 20:01 51.38210 3.30503 997 ft 143 kts 216°
2026-05-06 20:01 51.37423 3.29582 994 ft 141 kts 216°
2026-05-06 20:02 51.36644 3.28649 996 ft 138 kts 217°
2026-05-06 20:02 51.35876 3.27767 997 ft 134 kts 216°
2026-05-06 20:02 51.35128 3.26908 993 ft 130 kts 216°
2026-05-06 20:02 51.34411 3.26044 999 ft 128 kts 217°
2026-05-06 20:03 51.33693 3.25218 1003 ft 127 kts 215°
2026-05-06 20:03 51.32978 3.24396 1001 ft 127 kts 215°
2026-05-06 20:03 51.32277 3.23561 1002 ft 124 kts 216°
2026-05-06 20:03 51.31610 3.22709 1001 ft 121 kts 220°
2026-05-06 20:04 51.30967 3.21861 1010 ft 119 kts 220°
2026-05-06 20:04 51.30342 3.20993 1001 ft 119 kts 231°
2026-05-06 20:04 51.29854 3.19943 1005 ft 117 kts 235°
2026-05-06 20:04 51.29376 3.18894 1005 ft 116 kts 236°
2026-05-06 20:05 51.28890 3.17845 1009 ft 119 kts 237°
2026-05-06 20:05 51.28387 3.16809 1017 ft 117 kts 235°
2026-05-06 20:05 51.27895 3.15779 1020 ft 117 kts 236°
2026-05-06 20:05 51.27393 3.14708 1020 ft 127 kts 236°
2026-05-06 20:06 51.26849 3.13540 1028 ft 134 kts 236°
2026-05-06 20:06 51.26277 3.12327 1020 ft 135 kts 235°
2026-05-06 20:06 51.25714 3.11171 1018 ft 130 kts 231°
2026-05-06 20:06 51.25127 3.10171 1001 ft 118 kts 229°
2026-05-06 20:07 51.24571 3.09280 1001 ft 109 kts 227°
2026-05-06 20:07 51.24050 3.08461 997 ft 101 kts 228°
2026-05-06 20:07 51.23575 3.07707 1004 ft 96 kts 227°
2026-05-06 20:07 51.23170 3.06769 1013 ft 106 kts 256°
2026-05-06 20:08 51.22915 3.05681 1016 ft 105 kts 254°
2026-05-06 20:08 51.22653 3.04616 1005 ft 101 kts 254°
2026-05-06 20:08 51.22401 3.03591 1006 ft 97 kts 254°
2026-05-06 20:08 51.22153 3.02605 998 ft 94 kts 255°
2026-05-06 20:09 51.21947 3.01616 991 ft 95 kts 257°
2026-05-06 20:09 51.21760 3.00579 994 ft 99 kts 260°
2026-05-06 20:09 51.21662 2.99525 982 ft 95 kts 272°
2026-05-06 20:09 51.21584 2.98471 942 ft 98 kts 267°
2026-05-06 20:10 51.21454 2.97412 941 ft 99 kts 263°
2026-05-06 20:10 51.21301 2.96374 937 ft 93 kts 264°
2026-05-06 20:10 51.21152 2.95352 875 ft 97 kts 263°
2026-05-06 20:10 51.21003 2.94301 814 ft 96 kts 266°
2026-05-06 20:11 51.20866 2.93371 635 ft 83 kts 263°
2026-05-06 20:11 51.20725 2.92460 515 ft 85 kts 264°
2026-05-06 20:11 51.20580 2.91569 416 ft 82 kts 265°
2026-05-06 20:11 51.20447 2.90674 310 ft 83 kts 265°
2026-05-06 20:12 51.20329 2.89788 169 ft 81 kts 263°
2026-05-06 20:12 51.20198 2.88912 45 ft 82 kts 263°
2026-05-06 20:12 51.20093 2.88172 8 ft 43 kts 257°
2026-05-06 20:12 51.20042 2.87851 9 ft 26 kts 258°
2026-05-06 20:13 51.19999 2.87555 11 ft 26 kts 258°
2026-05-06 20:13 51.20020 2.87466 12 ft 0 kts 331°
2026-05-06 20:13 51.20042 2.87465 11 ft 4 kts 32°
2026-05-06 20:13 51.20077 2.87502 11 ft 9 kts 39°
2026-05-06 20:14 51.20151 2.87572 10 ft 14 kts 20°
2026-05-06 20:14 51.20148 2.87413 10 ft 28 kts 257°
2026-05-06 20:14 51.20097 2.87088 11 ft 31 kts 255°
2026-05-06 20:14 51.20067 2.86859 10 ft 20 kts 253°
2026-05-06 20:15 51.20027 2.86626 10 ft 24 kts 257°
2026-05-06 20:15 51.19988 2.86351 10 ft 27 kts 255°
2026-05-06 20:15 51.19942 2.86049 10 ft 29 kts 255°
2026-05-06 20:15 51.19895 2.85742 10 ft 26 kts 255°
2026-05-06 20:16 51.19885 2.85607 10 ft 3 kts 347°
2026-05-06 20:16 51.19912 2.85625 10 ft 6 kts 355°
2026-05-06 20:16 51.19932 2.85611 10 ft 2 kts 278°
2026-05-06 20:16 51.19930 2.85603 10 ft 0 kts 227°